Location: Skalnate Pleso
(49.1889°N, 20.2450°E)
Time: 03:57:57
(UTC+02:00)

Cosmos 1605 Rocket - Pass Details

Date: 27 February 2020
Orbit: 944 x 1007 km, 82.9° (Epoch: 08 April)

Event Time Altitude Azimuth Distance (km) Brightness Sun altitude
Rises 02:15:43 0° 354° (N) 3,677 7.4 -39.5°
Reaches altitude 10° 02:18:23 10° 0° (N) 2,717 6.7 -39.2°
Enters shadow 02:22:14 34° 27° (NNE) 1,535 5.3 -38.7°
